This is the latest recevied weather packets stored in our database for station/object K4XP. If no packets are shown the sender has not sent any weather packets the latest 10 day(s).
| Time | Temp. | Humidity | Pressure | Rain* | Wind** | Luminosity | Snow |
|---|---|---|---|---|---|---|---|
| 1777827020 | 16.67° C | 45% | 1019.3 hPa | 0 mm | - | - | - |
| 1777826716 | 17.22° C | 46% | 1019.5 hPa | 0 mm | - | - | - |
| 1777826412 | 16.67° C | 46% | 1019.5 hPa | 0 mm | - | - | - |
| 1777826128 | 16.67° C | 47% | 1019.5 hPa | 0 mm | - | - | - |
| 1777825825 | 16.67° C | 48% | 1019.6 hPa | 0 mm | - | - | - |
| 1777825521 | 16.11° C | 47% | 1019.7 hPa | 0 mm | - | - | - |
| 1777825221 | 16.11° C | 48% | 1019.8 hPa | 0 mm | - | - | - |
| 1777824916 | 15.56° C | 47% | 1019.8 hPa | 0 mm | - | - | - |
| 1777824611 | 16.11° C | 48% | 1019.8 hPa | 0 mm | - | - | - |
| 1777824328 | 16.11° C | 46% | 1019.8 hPa | 0 mm | - | - | - |
| 1777824024 | 16.11° C | 49% | 1019.8 hPa | 0 mm | - | - | - |
| 1777823718 | 15.56° C | 48% | 1019.9 hPa | 0 mm | - | - | - |
| 1777823414 | 15.56° C | 47% | 1020 hPa | 0 mm | - | - | - |
| 1777823115 | 15.56° C | 49% | 1020 hPa | 0 mm | - | - | - |
| 1777822812 | 15.56° C | 52% | 1020.1 hPa | 0 mm | - | - | - |
| 1777822528 | 15° C | 50% | 1020.1 hPa | 0 mm | - | - | - |
| 1777822225 | 15° C | 51% | 1020.1 hPa | 0 mm | - | - | - |
| 1777821921 | 15° C | 51% | 1020.2 hPa | 0 mm | - | - | - |
| 1777821617 | 15° C | 50% | 1020.2 hPa | 0 mm | - | - | - |
| 1777821313 | 15° C | 53% | 1020.2 hPa | 0 mm | - | - | - |
| 1777821013 | 15° C | 51% | 1020.2 hPa | 0 mm | - | - | - |
| 1777820728 | 15° C | 52% | 1020.3 hPa | 0 mm | - | - | - |
| 1777820424 | 15° C | 54% | 1020.3 hPa | 0 mm | - | - | - |
| 1777820120 | 14.44° C | 54% | 1020.3 hPa | 0 mm | - | - | - |
| 1777819817 | 14.44° C | 52% | 1020.4 hPa | 0 mm | - | - | - |
* Rain latest hour (hover to see other rain measurements)
** Current wind speed in m/s (hover to see current wind gust speed)